星链-2550 (STARLINK-2550 )

导读

STARLINK-2550是美国太空探索技术公司Starlink星座中的一颗卫星,于2021年4月29日发射入轨,属于SpaceX星链互联网项目的组网卫星。星链项目旨在构建全球卫星互联网,该卫星承担为全球偏远地区等提供低时延、高速宽带互联网接入的任务,助力全球网络覆盖的完善,推动卫星互联网络建设。

Basic Information
目录编号:
48293
目录名称:
STARLINK-2550
国际标识:
2021-036T
轨道中心:
EARTH
卫星名称:
星链-2550
卫星全名:
星链-2550 (STARLINK-2550 )
卫星状态:
在轨 (已飞行1954 天)
发射日期:
2021-04-29 UTC
国别 :
美国 (US)
星等 :
--
Orbit Information
数据来源 国际轨道数据
星历时间: 2026-09-03T23:09:12+0800
17小时前
查看轨道信息
半长轴: 6848.865km
偏心率: 0.0001171
轨道倾角: 53.161°
近地点辐角 93.801°
升交点赤经 327.328°
平近点角 266.312°
近地点: 469.925km
远地点: 471.531km
周期: 94.013分钟
每日圈数: 15.317043
Detailed Information
固有亮度:
5
最大亮度:
2.5
卫星平台:
Starlink V1.0
覆盖范围:
全球
运营商:
太空探索技术公司
运营商所在国:
美国
制造商(研发单位):
太空探索技术公司
制造商所在国:
美国
使用方式:
暂无
Satellite Introduction
星链(Starlink)计划是由太空探索技术公司(SpaceX)提出的一个巨型低轨卫星互联网星座项目,计划在2019年至2024年间在太空搭建由约1.2万颗卫星组成的“星链”网络,其中1584颗将部署在地球上空550千米处的近地轨道,并从2020年开始工作。该卫星仍在工作。
2D Orbit Map
3D Orbit Map
Orbit Altitude Analysis Chart
Orbit Inclination Analysis Chart
Orbit Comprehensive Analysis Chart
View Comprehensive Chart
Conjunction Data List
Event ID Objects TCA Miss Dist (km) Collision Risk Probability Collision Risk Index (CRI) Action
CDM_260829-062104-829306-902721
2026-08-29T
06:21:22+0000
2.570 km
极远距离
1.482866E-6 低风险 0.38
CDM_260905-060204-829306-485421
2026-09-05T
06:02:05+0000
2.941 km
极远距离
1.327168E-6 低风险 0.37
CDM_260906-011904-829306-771721
2026-09-06T
01:19:11+0000
2.991 km
极远距离
9.236117E-7 极低风险 0.34